EW0401 Weather Reports


time (UTC)temp
F
wind
direction
speed
knots
gust
knots
rain 1hr
in
rain 24hr
in
rain mn
in
humidity
%
barometer
mb
20260901030103 84 0 0.0 0.0 0.00 0.02 0.02 83 1015.4
20260901024607 84 0 0.0 0.0 0.00 0.02 0.02 83 1015.1
20260901023109 85 0 0.0 0.0 0.00 0.02 0.02 82 1014.9
20260901021608 85 0 0.0 0.0 0.00 0.02 0.02 82 1014.8
20260901020106 85 277 0.0 0.0 0.00 0.02 0.02 82 1014.8
20260901014606 85 0 0.0 0.0 0.00 0.02 0.02 81 1014.5
20260901013109 86 0 0.0 0.0 0.00 0.02 0.02 80 1014.2
20260901011607 86 0 0.0 0.0 0.00 0.02 0.02 79 1014.3
20260901010109 87 0 0.0 0.0 0.00 0.02 0.02 78 1014.4
20260901004614 88 0 0.0 0.9 0.00 0.02 0.02 77 1014.4
20260901003107 88 252 0.0 1.7 0.00 0.02 0.02 76 1014.2
20260901001604 89 0 0.0 5.2 0.00 0.02 0.02 75 1014.3
20260831234606 91 237 0.0 3.5 0.00 0.02 0.02 72 1014.2
20260831233103 90 0 0.0 4.3 0.00 0.02 0.02 73 1014.2
20260831231601 90 0 0.0 3.5 0.00 0.02 0.02 74 1014.3
20260831230115 90 0 0.0 6.1 0.01 0.02 0.02 74 1014.4
20260831224603 91 249 0.9 2.6 0.01 0.02 0.02 73 1014.4
20260831223102 91 0 0.0 6.1 0.01 0.02 0.02 74 1014.5
20260831221607 91 0 0.0 3.5 0.01 0.02 0.02 74 1014.6
20260831220133 90 254 0.0 5.2 0.00 0.01 0.01 74 1014.5
20260831214603 89 254 0.0 5.2 0.01 0.01 0.01 78 1014.7
20260831213120 88 260 0.0 2.6 0.01 0.01 0.01 82 1014.9
20260831211616 87 0 0.0 2.6 0.01 0.01 0.01 82 1015.2
20260831210106 88 0 0.0 2.6 0.01 0.01 0.01 81 1015.5
20260831204601 89 0 0.0 4.3 0.00 0.00 0.00 76 1015.8
20260831203122 88 0 0.9 4.3 0.00 0.00 0.00 74 1015.6
20260831201603 88 246 0.9 3.5 0.00 0.00 0.00 76 1015.6
20260831194606 88 0 0.0 5.2 0.00 0.00 0.00 78 1016.0
20260831193102 89 241 0.9 6.1 0.00 0.00 0.00 76 1015.9
20260831191602 90 204 0.9 6.1 0.00 0.00 0.00 73 1016.1
20260831190110 92 261 0.9 11.3 0.00 0.00 0.00 70 1016.1
20260831184606 92 0 0.9 3.5 0.00 0.00 0.00 70 1016.2
20260831183102 93 0 0.0 2.6 0.00 0.00 0.00 67 1016.3
20260831181602 91 0 0.0 0.9 0.00 0.00 0.00 71 1016.6
20260831180110 90 0 0.0 2.6 0.00 0.00 0.00 70 1016.7
20260831174605 91 0 0.0 1.7 0.00 0.00 0.00 72 1017.0
20260831173104 91 0 0.0 3.5 0.00 0.00 0.00 72 1017.1
20260831171604 91 0 0.0 1.7 0.00 0.00 0.00 73 1017.3
20260831170105 92 0 0.0 2.6 0.00 0.00 0.00 69 1017.4
20260831164630 91 0 0.0 2.6 0.00 0.00 0.00 71 1017.3
20260831163105 90 0 0.0 2.6 0.00 0.00 0.00 72 1017.4
20260831161614 91 58 0.0 2.6 0.00 0.00 0.00 74 1017.4
20260831160107 90 0 0.0 2.6 0.00 0.00 0.00 75 1017.6
20260831154635 90 47 0.0 1.7 0.00 0.00 0.00 77 1017.4
20260831153105 88 0 0.0 1.7 0.00 0.00 0.00 79 1017.4
20260831151614 86 0 0.0 3.5 0.00 0.00 0.00 83 1017.5
20260831150104 84 0 0.0 3.5 0.00 0.00 0.00 84 1017.7
20260831144615 83 59 0.0 1.7 0.00 0.00 0.00 85 1017.6
20260831143114 82 0 0.0 0.9 0.00 0.00 0.00 86 1017.5
20260831141619 81 0 0.0 0.0 0.00 0.00 0.00 87 1017.4
20260831140101 80 0 0.0 1.7 0.00 0.00 0.00 88 1017.3
20260831134604 80 0 0.0 1.7 0.00 0.00 0.00 88 1017.2
20260831133104 80 0 0.0 0.9 0.00 0.00 0.00 88 1017.2
20260831132532 80 63 0.0 1.7 0.00 0.00 0.00 89 1016.8
20260831131605 79 0 0.0 0.9 0.00 0.00 0.00 88 1017.0
20260831124601 78 225 0.0 1.7 0.00 0.00 0.00 89 1016.6
20260831123103 78 225 0.0 1.7 0.00 0.00 0.00 90 1016.2
20260831121605 78 0 0.0 0.0 0.00 0.00 0.00 90 1016.0
20260831120112 77 0 0.0 0.0 0.00 0.00 0.00 90 1015.9
20260831114604 77 0 0.0 0.0 0.00 0.00 0.00 90 1015.6
20260831113108 77 0 0.0 0.0 0.00 0.00 0.00 90 1015.8
20260831111609 77 0 0.0 0.0 0.00 0.00 0.00 90 1015.7
20260831104607 77 0 0.0 0.0 0.00 0.00 0.00 89 1015.5
20260831103103 77 0 0.0 0.0 0.00 0.00 0.00 89 1015.7
20260831101559 77 0 0.0 0.0 0.00 0.00 0.00 89 1015.7
20260831100106 77 0 0.0 0.0 0.00 0.00 0.00 89 1015.7
20260831094607 78 0 0.0 0.0 0.00 0.00 0.00 89 1015.6
20260831093107 78 0 0.0 0.0 0.00 0.00 0.00 89 1015.5
20260831091607 78 0 0.0 0.0 0.00 0.00 0.00 88 1015.5
20260831084611 78 0 0.0 0.0 0.00 0.00 0.00 88 1015.4
20260831083113 79 0 0.0 0.0 0.00 0.00 0.00 88 1015.5
20260831081608 79 0 0.0 0.0 0.00 0.00 0.00 87 1015.6
20260831080108 79 0 0.0 0.0 0.00 0.00 0.00 87 1015.9
20260831074615 80 0 0.0 0.0 0.00 0.00 0.00 87 1015.9
20260831073110 80 0 0.0 0.0 0.00 0.00 0.00 86 1015.7
20260831071604 80 0 0.0 0.0 0.00 0.00 0.00 86 1015.9
20260831070105 81 0 0.0 0.0 0.00 0.00 0.00 86 1015.9
20260831064559 81 0 0.0 0.0 0.00 0.00 0.00 86 1015.9
20260831063106 81 0 0.0 0.0 0.00 0.00 0.00 85 1016.0
20260831061602 82 0 0.0 0.0 0.00 0.00 0.00 85 1016.0
20260831060108 81 0 0.0 0.0 0.00 0.00 0.00 85 1016.0
20260831054604 82 0 0.0 0.0 0.00 0.00 0.00 85 1016.1
20260831053104 82 0 0.0 0.0 0.00 0.00 0.00 85 1016.2
20260831051611 82 0 0.0 0.0 0.00 0.00 0.00 84 1015.9
20260831050108 83 0 0.0 0.0 0.00 0.00 0.00 84 1015.8
20260831044616 83 0 0.0 0.0 0.00 0.00 0.00 84 1015.9
20260831043105 83 0 0.0 0.0 0.00 0.00 0.00 82 1015.8
20260831041605 84 0 0.0 0.9 0.00 0.00 0.00 82 1015.8
20260831040107 84 0 0.0 1.7 0.00 0.00 0.00 82 1015.7
20260831034607 84 0 0.0 1.7 0.00 0.00 0.00 82 1015.7
20260831033119 85 0 0.0 1.7 0.00 0.00 0.00 81 1015.6
20260831031600 85 0 0.0 2.6 0.00 0.00 0.00 80 1015.4